Year,Month,Day,Hour,Minute,Value (Times are PST for temperature in C)
2009,04,24,00,00,5.60
2009,04,24,00,01,5.50
2009,04,24,00,02,5.50
2009,04,24,00,03,5.40
2009,04,24,00,04,5.30
2009,04,24,00,05,5.30
2009,04,24,00,06,5.30
2009,04,24,00,07,5.20
2009,04,24,00,08,5.20
2009,04,24,00,09,5.10
2009,04,24,00,10,5.10
2009,04,24,00,11,5.10
2009,04,24,00,12,5.10
2009,04,24,00,13,5.10
2009,04,24,00,14,5.10
2009,04,24,00,15,5.10
2009,04,24,00,16,5.10
2009,04,24,00,17,5.00
2009,04,24,00,18,4.90
2009,04,24,00,19,4.90
2009,04,24,00,20,4.90
2009,04,24,00,21,4.90
2009,04,24,00,22,4.90
2009,04,24,00,23,4.90
2009,04,24,00,24,4.90
2009,04,24,00,25,4.90
2009,04,24,00,26,4.80
2009,04,24,00,27,4.80
2009,04,24,00,28,4.70
2009,04,24,00,29,4.70
2009,04,24,00,30,4.70
2009,04,24,00,31,4.60
2009,04,24,00,32,4.60
2009,04,24,00,33,4.60
2009,04,24,00,34,4.60
2009,04,24,00,35,4.60
2009,04,24,00,36,4.60
2009,04,24,00,37,4.60
2009,04,24,00,38,4.60
2009,04,24,00,39,4.60
2009,04,24,00,40,4.60
2009,04,24,00,41,4.60
2009,04,24,00,42,4.60
2009,04,24,00,43,4.60
2009,04,24,00,44,4.60
2009,04,24,00,45,4.60
2009,04,24,00,46,4.50
2009,04,24,00,47,4.50
2009,04,24,00,48,4.50
2009,04,24,00,49,4.60
2009,04,24,00,50,4.60
2009,04,24,00,51,4.70
2009,04,24,00,52,4.70
2009,04,24,00,53,4.70
2009,04,24,00,54,4.80
2009,04,24,00,55,4.80
2009,04,24,00,56,4.80
2009,04,24,00,57,4.80
2009,04,24,00,58,4.70
2009,04,24,00,59,4.70
2009,04,24,01,00,4.70
2009,04,24,01,01,4.70
2009,04,24,01,02,4.60
2009,04,24,01,03,4.60
2009,04,24,01,04,4.60
2009,04,24,01,05,4.50
2009,04,24,01,06,4.50
2009,04,24,01,07,4.50
2009,04,24,01,08,4.40
2009,04,24,01,09,4.40
2009,04,24,01,10,4.40
2009,04,24,01,11,4.30
2009,04,24,01,12,4.30
2009,04,24,01,13,4.20
2009,04,24,01,14,4.10
2009,04,24,01,15,4.10
2009,04,24,01,16,4.10
2009,04,24,01,17,4.00
2009,04,24,01,18,4.00
2009,04,24,01,19,4.00
2009,04,24,01,20,3.90
2009,04,24,01,21,3.90
2009,04,24,01,22,3.90
2009,04,24,01,23,3.90
2009,04,24,01,24,3.80
2009,04,24,01,25,3.80
2009,04,24,01,26,3.80
2009,04,24,01,27,3.80
2009,04,24,01,28,3.80
2009,04,24,01,29,3.80
2009,04,24,01,30,3.70
2009,04,24,01,31,3.60
2009,04,24,01,32,3.60
2009,04,24,01,33,3.50
2009,04,24,01,34,3.50
2009,04,24,01,35,3.50
2009,04,24,01,36,3.40
2009,04,24,01,37,3.40
2009,04,24,01,38,3.40
2009,04,24,01,39,3.40
2009,04,24,01,40,3.40
2009,04,24,01,41,3.40
2009,04,24,01,42,3.40
2009,04,24,01,43,3.40
2009,04,24,01,44,3.30
2009,04,24,01,45,3.30
2009,04,24,01,46,3.30
2009,04,24,01,47,3.30
2009,04,24,01,48,3.30
2009,04,24,01,49,3.30
2009,04,24,01,50,3.20
2009,04,24,01,51,3.20
2009,04,24,01,52,3.20
2009,04,24,01,53,3.30
2009,04,24,01,54,3.20
2009,04,24,01,55,3.20
2009,04,24,01,56,3.20
2009,04,24,01,57,3.20
2009,04,24,01,58,3.10
2009,04,24,01,59,3.10
2009,04,24,02,00,3.10
2009,04,24,02,01,3.10
2009,04,24,02,02,3.10
2009,04,24,02,03,3.10
2009,04,24,02,04,3.10
2009,04,24,02,05,3.10
2009,04,24,02,06,3.10
2009,04,24,02,07,2.90
2009,04,24,02,08,2.90
2009,04,24,02,09,2.90
2009,04,24,02,10,2.90
2009,04,24,02,11,2.90
2009,04,24,02,12,2.90
2009,04,24,02,13,2.90
2009,04,24,02,14,3.00
2009,04,24,02,15,3.10
2009,04,24,02,16,3.10
2009,04,24,02,17,3.10
2009,04,24,02,18,3.10
2009,04,24,02,19,3.10
2009,04,24,02,20,3.00
2009,04,24,02,21,2.90
2009,04,24,02,22,2.90
2009,04,24,02,23,2.90
2009,04,24,02,24,2.90
2009,04,24,02,25,2.90
2009,04,24,02,26,2.90
2009,04,24,02,27,2.90
2009,04,24,02,28,2.90
2009,04,24,02,29,2.90
2009,04,24,02,30,2.90
2009,04,24,02,31,2.90
2009,04,24,02,32,2.90
2009,04,24,02,33,3.00
2009,04,24,02,34,3.10
2009,04,24,02,35,3.00
2009,04,24,02,36,2.90
2009,04,24,02,37,2.90
2009,04,24,02,38,2.90
2009,04,24,02,39,2.90
2009,04,24,02,40,2.90
2009,04,24,02,41,2.90
2009,04,24,02,42,2.80
2009,04,24,02,43,2.80
2009,04,24,02,44,2.70
2009,04,24,02,45,2.70
2009,04,24,02,46,2.70
2009,04,24,02,47,2.70
2009,04,24,02,48,2.60
2009,04,24,02,49,2.60
2009,04,24,02,50,2.50
2009,04,24,02,51,2.50
2009,04,24,02,52,2.50
2009,04,24,02,53,2.50
2009,04,24,02,54,2.50
2009,04,24,02,55,2.50
2009,04,24,02,56,2.50
2009,04,24,02,57,2.50
2009,04,24,02,58,2.40
2009,04,24,02,59,2.40
2009,04,24,03,00,2.40
2009,04,24,03,01,2.40
2009,04,24,03,02,2.40
2009,04,24,03,03,2.50
2009,04,24,03,04,2.50
2009,04,24,03,05,2.40
2009,04,24,03,06,2.40
2009,04,24,03,07,2.40
2009,04,24,03,08,2.40
2009,04,24,03,09,2.40
2009,04,24,03,10,2.40
2009,04,24,03,11,2.40
2009,04,24,03,12,2.40
2009,04,24,03,13,2.40
2009,04,24,03,14,2.40
2009,04,24,03,15,2.50
2009,04,24,03,16,2.50
2009,04,24,03,17,2.50
2009,04,24,03,18,2.60
2009,04,24,03,19,2.60
2009,04,24,03,20,2.60
2009,04,24,03,21,2.60
2009,04,24,03,22,2.60
2009,04,24,03,23,2.70
2009,04,24,03,24,2.70
2009,04,24,03,25,2.70
2009,04,24,03,26,2.80
2009,04,24,03,27,2.80
2009,04,24,03,28,2.90
2009,04,24,03,29,2.90
2009,04,24,03,30,2.90
2009,04,24,03,31,2.90
2009,04,24,03,32,3.00
2009,04,24,03,33,3.10
2009,04,24,03,34,3.10
2009,04,24,03,35,3.00
2009,04,24,03,36,2.90
2009,04,24,03,37,2.90
2009,04,24,03,38,2.90
2009,04,24,03,39,2.90
2009,04,24,03,40,2.90
2009,04,24,03,41,2.90
2009,04,24,03,42,2.90
2009,04,24,03,43,2.90
2009,04,24,03,44,2.80
2009,04,24,03,45,2.80
2009,04,24,03,46,2.70
2009,04,24,03,47,2.70
2009,04,24,03,48,2.70
2009,04,24,03,49,2.70
2009,04,24,03,50,2.70
2009,04,24,03,51,2.60
2009,04,24,03,52,2.60
2009,04,24,03,53,2.50
2009,04,24,03,54,2.50
2009,04,24,03,55,2.50
2009,04,24,03,56,2.50
2009,04,24,03,57,2.60
2009,04,24,03,58,2.60
2009,04,24,03,59,2.60
2009,04,24,04,00,2.60
2009,04,24,04,01,2.60
2009,04,24,04,02,2.60
2009,04,24,04,03,2.60
2009,04,24,04,04,2.60
2009,04,24,04,05,2.60
2009,04,24,04,06,2.60
2009,04,24,04,07,2.60
2009,04,24,04,08,2.60
2009,04,24,04,09,2.50
2009,04,24,04,10,2.50
2009,04,24,04,11,2.50
2009,04,24,04,12,2.50
2009,04,24,04,13,2.50
2009,04,24,04,14,2.40
2009,04,24,04,15,2.40
2009,04,24,04,16,2.30
2009,04,24,04,17,2.30
2009,04,24,04,18,2.30
2009,04,24,04,19,2.30
2009,04,24,04,20,2.30
2009,04,24,04,21,2.30
2009,04,24,04,22,2.30
2009,04,24,04,23,2.30
2009,04,24,04,24,2.30
2009,04,24,04,25,2.20
2009,04,24,04,26,2.20
2009,04,24,04,27,2.20
2009,04,24,04,28,2.20
2009,04,24,04,29,2.20
2009,04,24,04,30,2.20
2009,04,24,04,31,2.20
2009,04,24,04,32,2.10
2009,04,24,04,33,2.10
2009,04,24,04,34,2.10
2009,04,24,04,35,2.10
2009,04,24,04,36,2.20
2009,04,24,04,37,2.20
2009,04,24,04,38,2.20
2009,04,24,04,39,2.10
2009,04,24,04,40,2.10
2009,04,24,04,41,2.00
2009,04,24,04,42,2.00
2009,04,24,04,43,2.00
2009,04,24,04,44,1.90
2009,04,24,04,45,1.90
2009,04,24,04,46,1.80
2009,04,24,04,47,1.80
2009,04,24,04,48,1.90
2009,04,24,04,49,1.90
2009,04,24,04,50,1.90
2009,04,24,04,51,1.90
2009,04,24,04,52,1.90
2009,04,24,04,53,1.90
2009,04,24,04,54,1.90
2009,04,24,04,55,1.80
2009,04,24,04,56,1.80
2009,04,24,04,57,1.80
2009,04,24,04,58,1.80
2009,04,24,04,59,1.80
2009,04,24,05,00,1.80
2009,04,24,05,01,1.70
2009,04,24,05,02,1.70
2009,04,24,05,03,1.60
2009,04,24,05,04,1.60
2009,04,24,05,05,1.60
2009,04,24,05,06,1.50
2009,04,24,05,07,1.50
2009,04,24,05,08,1.50
2009,04,24,05,09,1.50
2009,04,24,05,10,1.50
2009,04,24,05,11,1.50
2009,04,24,05,12,1.50
2009,04,24,05,13,1.50
2009,04,24,05,14,1.50
2009,04,24,05,15,1.60
2009,04,24,05,16,1.60
2009,04,24,05,17,1.70
2009,04,24,05,18,1.80
2009,04,24,05,19,1.80
2009,04,24,05,20,1.80
2009,04,24,05,21,1.90
2009,04,24,05,22,1.90
2009,04,24,05,23,1.90
2009,04,24,05,24,1.90
2009,04,24,05,25,1.80
2009,04,24,05,26,1.80
2009,04,24,05,27,1.80
2009,04,24,05,28,1.80
2009,04,24,05,29,1.80
2009,04,24,05,30,1.80
2009,04,24,05,31,1.80
2009,04,24,05,32,1.80
2009,04,24,05,33,1.80
2009,04,24,05,34,1.80
2009,04,24,05,35,1.80
2009,04,24,05,36,1.70
2009,04,24,05,37,1.70
2009,04,24,05,38,1.70
2009,04,24,05,39,1.70
2009,04,24,05,40,1.60
2009,04,24,05,41,1.60
2009,04,24,05,42,1.60
2009,04,24,05,43,1.50
2009,04,24,05,44,1.50
2009,04,24,05,45,1.50
2009,04,24,05,46,1.40
2009,04,24,05,47,1.40
2009,04,24,05,48,1.50
2009,04,24,05,49,1.50
2009,04,24,05,50,1.50
2009,04,24,05,51,1.50
2009,04,24,05,52,1.50
2009,04,24,05,53,1.50
2009,04,24,05,54,1.60
2009,04,24,05,55,1.50
2009,04,24,05,56,1.50
2009,04,24,05,57,1.50
2009,04,24,05,58,1.50
2009,04,24,05,59,1.60
2009,04,24,06,00,1.60
2009,04,24,06,01,1.60
2009,04,24,06,02,1.60
2009,04,24,06,03,1.60
2009,04,24,06,04,1.70
2009,04,24,06,05,1.70
2009,04,24,06,06,1.70
2009,04,24,06,07,1.70
2009,04,24,06,08,1.60
2009,04,24,06,09,1.60
2009,04,24,06,10,1.60
2009,04,24,06,11,1.60
2009,04,24,06,12,1.60
2009,04,24,06,13,1.60
2009,04,24,06,14,1.70
2009,04,24,06,15,1.70
2009,04,24,06,16,1.80
2009,04,24,06,17,1.80
2009,04,24,06,18,1.90
2009,04,24,06,19,1.90
2009,04,24,06,20,1.90
2009,04,24,06,21,1.90
2009,04,24,06,22,1.90
2009,04,24,06,23,1.90
2009,04,24,06,24,1.90
2009,04,24,06,25,1.90
2009,04,24,06,26,1.90
2009,04,24,06,27,1.80
2009,04,24,06,28,1.80
2009,04,24,06,29,1.80
2009,04,24,06,30,1.80
2009,04,24,06,31,1.80
2009,04,24,06,32,1.70
2009,04,24,06,33,1.70
2009,04,24,06,34,1.70
2009,04,24,06,35,1.70
2009,04,24,06,36,1.70
2009,04,24,06,37,1.70
2009,04,24,06,38,1.80
2009,04,24,06,39,1.80
2009,04,24,06,40,1.80
2009,04,24,06,41,2.00
2009,04,24,06,42,2.10
2009,04,24,06,43,2.20
2009,04,24,06,44,2.30
2009,04,24,06,45,2.40
2009,04,24,06,46,2.40
2009,04,24,06,47,2.50
2009,04,24,06,48,2.50
2009,04,24,06,49,2.60
2009,04,24,06,50,2.70
2009,04,24,06,51,2.70
2009,04,24,06,52,2.70
2009,04,24,06,53,2.80
2009,04,24,06,54,2.90
2009,04,24,06,55,3.10
2009,04,24,06,56,3.20
2009,04,24,06,57,3.30
2009,04,24,06,58,3.40
2009,04,24,06,59,3.50
2009,04,24,07,00,3.60
2009,04,24,07,01,3.70
2009,04,24,07,02,3.80
2009,04,24,07,03,4.00
2009,04,24,07,04,4.10
2009,04,24,07,05,4.30
2009,04,24,07,06,4.50
2009,04,24,07,07,4.60
2009,04,24,07,08,4.70
2009,04,24,07,09,4.90
2009,04,24,07,10,5.10
2009,04,24,07,11,5.20
2009,04,24,07,12,5.40
2009,04,24,07,13,5.60
2009,04,24,07,14,5.70
2009,04,24,07,15,5.90
2009,04,24,07,16,6.10
2009,04,24,07,17,6.30
2009,04,24,07,18,6.50
2009,04,24,07,19,6.70
2009,04,24,07,20,6.80
2009,04,24,07,21,6.80
2009,04,24,07,22,7.00
2009,04,24,07,23,7.10
2009,04,24,07,24,7.20
2009,04,24,07,25,7.40
2009,04,24,07,26,7.50
2009,04,24,07,27,7.60
2009,04,24,07,28,7.80
2009,04,24,07,29,7.90
2009,04,24,07,30,8.00
2009,04,24,07,31,8.10
2009,04,24,07,32,8.20
2009,04,24,07,33,8.30
2009,04,24,07,34,8.40
2009,04,24,07,35,8.50
2009,04,24,07,36,8.60
2009,04,24,07,37,8.60
2009,04,24,07,38,8.70
2009,04,24,07,39,8.70
2009,04,24,07,40,8.80
2009,04,24,07,41,9.00
2009,04,24,07,42,9.00
2009,04,24,07,43,9.10
2009,04,24,07,44,9.10
2009,04,24,07,45,9.00
2009,04,24,07,46,8.80
2009,04,24,07,47,8.70
2009,04,24,07,48,8.70
2009,04,24,07,49,8.70
2009,04,24,07,50,8.70
2009,04,24,07,51,8.70
2009,04,24,07,52,8.90
2009,04,24,07,53,9.00
2009,04,24,07,54,9.10
2009,04,24,07,55,9.20
2009,04,24,07,56,9.20
2009,04,24,07,57,9.30
2009,04,24,07,58,9.30
2009,04,24,07,59,9.30
2009,04,24,08,00,9.30
2009,04,24,08,01,9.20
2009,04,24,08,02,9.20
2009,04,24,08,03,9.20
2009,04,24,08,04,9.20
2009,04,24,08,05,9.10
2009,04,24,08,06,9.00
2009,04,24,08,07,8.90
2009,04,24,08,08,8.80
2009,04,24,08,09,8.80
2009,04,24,08,10,8.80
2009,04,24,08,11,8.80
2009,04,24,08,12,8.90
2009,04,24,08,13,9.00
2009,04,24,08,14,9.20
2009,04,24,08,15,9.20
2009,04,24,08,16,9.20
2009,04,24,08,17,9.20
2009,04,24,08,18,9.20
2009,04,24,08,19,9.30
2009,04,24,08,20,9.40
2009,04,24,08,21,9.50
2009,04,24,08,22,9.60
2009,04,24,08,23,9.70
2009,04,24,08,24,9.80
2009,04,24,08,25,9.90
2009,04,24,08,26,10.00
2009,04,24,08,27,10.20
2009,04,24,08,28,10.30
2009,04,24,08,29,10.40
2009,04,24,08,30,10.40
2009,04,24,08,31,10.40
2009,04,24,08,32,10.30
2009,04,24,08,33,10.00
2009,04,24,08,34,9.70
2009,04,24,08,35,9.50
2009,04,24,08,36,9.40
2009,04,24,08,37,9.30
2009,04,24,08,38,9.30
2009,04,24,08,39,9.20
2009,04,24,08,40,9.20
2009,04,24,08,41,9.20
2009,04,24,08,42,9.20
2009,04,24,08,43,9.30
2009,04,24,08,44,9.50
2009,04,24,08,45,9.70
2009,04,24,08,46,9.80
2009,04,24,08,47,9.90
2009,04,24,08,48,9.90
2009,04,24,08,49,10.00
2009,04,24,08,50,10.20
2009,04,24,08,51,10.30
2009,04,24,08,52,10.30
2009,04,24,08,53,10.40
2009,04,24,08,54,10.40
2009,04,24,08,55,10.40
2009,04,24,08,56,10.40
2009,04,24,08,57,10.50
2009,04,24,08,58,10.60
2009,04,24,08,59,10.60
2009,04,24,09,00,10.60
2009,04,24,09,01,10.60
2009,04,24,09,02,10.60
2009,04,24,09,03,10.50
2009,04,24,09,04,10.40
2009,04,24,09,05,10.30
2009,04,24,09,06,10.20
2009,04,24,09,07,10.10
2009,04,24,09,08,10.00
2009,04,24,09,09,9.90
2009,04,24,09,10,9.90
2009,04,24,09,11,9.90
2009,04,24,09,12,9.90
2009,04,24,09,13,9.90
2009,04,24,09,14,9.90
2009,04,24,09,15,9.90
2009,04,24,09,16,10.00
2009,04,24,09,17,10.10
2009,04,24,09,18,10.10
2009,04,24,09,19,10.00
2009,04,24,09,20,9.90
2009,04,24,09,21,10.00
2009,04,24,09,22,10.10
2009,04,24,09,23,10.10
2009,04,24,09,24,10.10
2009,04,24,09,25,10.10
2009,04,24,09,26,10.10
2009,04,24,09,27,10.20
2009,04,24,09,28,10.20
2009,04,24,09,29,10.20
2009,04,24,09,30,10.30
2009,04,24,09,31,10.40
2009,04,24,09,32,10.50
2009,04,24,09,33,10.60
2009,04,24,09,34,10.60
2009,04,24,09,35,10.70
2009,04,24,09,36,10.70
2009,04,24,09,37,10.60
2009,04,24,09,38,10.60
2009,04,24,09,39,10.50
2009,04,24,09,40,10.40
2009,04,24,09,41,10.30
2009,04,24,09,42,10.30
2009,04,24,09,43,10.30
2009,04,24,09,44,10.40
2009,04,24,09,45,10.40
2009,04,24,09,46,10.50
2009,04,24,09,47,10.60
2009,04,24,09,48,10.70
2009,04,24,09,49,10.70
2009,04,24,09,50,10.90
2009,04,24,09,51,10.90
2009,04,24,09,52,10.90
2009,04,24,09,53,10.90
2009,04,24,09,54,10.90
2009,04,24,09,55,10.90
2009,04,24,09,56,10.80
2009,04,24,09,57,10.70
2009,04,24,09,58,10.60
2009,04,24,09,59,10.40
2009,04,24,10,00,10.30
2009,04,24,10,01,10.10
2009,04,24,10,02,10.10
2009,04,24,10,03,10.00
2009,04,24,10,04,10.00
2009,04,24,10,05,10.10
2009,04,24,10,06,10.30
2009,04,24,10,07,10.40
2009,04,24,10,08,10.40
2009,04,24,10,09,10.30
2009,04,24,10,10,10.20
2009,04,24,10,11,10.00
2009,04,24,10,12,9.90
2009,04,24,10,13,9.80
2009,04,24,10,14,9.80
2009,04,24,10,15,9.90
2009,04,24,10,16,9.80
2009,04,24,10,17,9.80
2009,04,24,10,18,9.80
2009,04,24,10,19,9.80
2009,04,24,10,20,9.80
2009,04,24,10,21,9.80
2009,04,24,10,22,9.70
2009,04,24,10,23,9.60
2009,04,24,10,24,9.50
2009,04,24,10,25,9.40
2009,04,24,10,26,9.40
2009,04,24,10,27,9.40
2009,04,24,10,28,9.50
2009,04,24,10,29,9.60
2009,04,24,10,30,9.50
2009,04,24,10,31,9.50
2009,04,24,10,32,9.40
2009,04,24,10,33,9.30
2009,04,24,10,34,9.40
2009,04,24,10,35,9.40
2009,04,24,10,36,9.30
2009,04,24,10,37,9.30
2009,04,24,10,38,9.30
2009,04,24,10,39,9.40
2009,04,24,10,40,9.50
2009,04,24,10,41,9.50
2009,04,24,10,42,9.60
2009,04,24,10,43,9.60
2009,04,24,10,44,9.60
2009,04,24,10,45,9.70
2009,04,24,10,46,9.70
2009,04,24,10,47,9.70
2009,04,24,10,48,9.80
2009,04,24,10,49,9.80
2009,04,24,10,50,9.90
2009,04,24,10,51,9.90
2009,04,24,10,52,9.80
2009,04,24,10,53,9.70
2009,04,24,10,54,9.60
2009,04,24,10,55,9.60
2009,04,24,10,56,9.50
2009,04,24,10,57,9.40
2009,04,24,10,58,9.40
2009,04,24,10,59,9.30
2009,04,24,11,00,9.40
2009,04,24,11,01,9.40
2009,04,24,11,02,9.60
2009,04,24,11,03,9.70
2009,04,24,11,04,9.70
2009,04,24,11,05,9.90
2009,04,24,11,06,9.90
2009,04,24,11,07,9.90
2009,04,24,11,08,9.90
2009,04,24,11,09,9.90
2009,04,24,11,10,10.00
2009,04,24,11,11,10.10
2009,04,24,11,12,10.10
2009,04,24,11,13,10.10
2009,04,24,11,14,10.20
2009,04,24,11,15,10.30
2009,04,24,11,16,10.40
2009,04,24,11,17,10.40
2009,04,24,11,18,10.40
2009,04,24,11,19,10.40
2009,04,24,11,20,10.30
2009,04,24,11,21,10.30
2009,04,24,11,22,10.30
2009,04,24,11,23,10.20
2009,04,24,11,24,10.20
2009,04,24,11,25,10.20
2009,04,24,11,26,10.30
2009,04,24,11,27,10.40
2009,04,24,11,28,10.40
2009,04,24,11,29,10.40
2009,04,24,11,30,10.60
2009,04,24,11,31,10.60
2009,04,24,11,32,10.70
2009,04,24,11,33,10.70
2009,04,24,11,34,10.70
2009,04,24,11,35,10.70
2009,04,24,11,36,10.60
2009,04,24,11,37,10.60
2009,04,24,11,38,10.70
2009,04,24,11,39,10.70
2009,04,24,11,40,10.50
2009,04,24,11,41,10.50
2009,04,24,11,42,10.60
2009,04,24,11,43,10.70
2009,04,24,11,44,10.60
2009,04,24,11,45,10.70
2009,04,24,11,46,10.80
2009,04,24,11,47,10.70
2009,04,24,11,48,10.70
2009,04,24,11,49,10.70
2009,04,24,11,50,10.60
2009,04,24,11,51,10.60
2009,04,24,11,52,10.50
2009,04,24,11,53,10.40
2009,04,24,11,54,10.40
2009,04,24,11,55,10.50
2009,04,24,11,56,10.60
2009,04,24,11,57,10.60
2009,04,24,11,58,10.60
2009,04,24,11,59,10.60
2009,04,24,12,00,10.70
2009,04,24,12,01,10.70
2009,04,24,12,02,10.60
2009,04,24,12,03,10.60
2009,04,24,12,04,10.60
2009,04,24,12,05,10.50
2009,04,24,12,06,10.50
2009,04,24,12,07,10.60
2009,04,24,12,08,10.60
2009,04,24,12,09,10.70
2009,04,24,12,10,10.70
2009,04,24,12,11,10.70
2009,04,24,12,12,10.70
2009,04,24,12,13,10.80
2009,04,24,12,14,10.70
2009,04,24,12,15,10.60
2009,04,24,12,16,10.40
2009,04,24,12,17,10.40
2009,04,24,12,18,10.50
2009,04,24,12,19,10.30
2009,04,24,12,20,10.20
2009,04,24,12,21,10.30
2009,04,24,12,22,10.30
2009,04,24,12,23,10.30
2009,04,24,12,24,10.30
2009,04,24,12,25,10.40
2009,04,24,12,26,10.30
2009,04,24,12,27,10.30
2009,04,24,12,28,10.40
2009,04,24,12,29,10.40
2009,04,24,12,30,10.40
2009,04,24,12,31,10.40
2009,04,24,12,32,10.40
2009,04,24,12,33,10.40
2009,04,24,12,34,10.40
2009,04,24,12,35,10.40
2009,04,24,12,36,10.40
2009,04,24,12,37,10.50
2009,04,24,12,38,10.50
2009,04,24,12,39,10.50
2009,04,24,12,40,10.60
2009,04,24,12,41,10.50
2009,04,24,12,42,10.40
2009,04,24,12,43,10.30
2009,04,24,12,44,10.30
2009,04,24,12,45,10.30
2009,04,24,12,46,10.30
2009,04,24,12,47,10.20
2009,04,24,12,48,10.20
2009,04,24,12,49,10.30
2009,04,24,12,50,10.20
2009,04,24,12,51,10.20
2009,04,24,12,52,10.20
2009,04,24,12,53,10.20
2009,04,24,12,54,10.20
2009,04,24,12,55,10.30
2009,04,24,12,56,10.20
2009,04,24,12,57,10.10
2009,04,24,12,58,10.10
2009,04,24,12,59,10.20
2009,04,24,13,00,10.20
2009,04,24,13,01,10.50
2009,04,24,13,02,10.60
2009,04,24,13,03,10.60
2009,04,24,13,04,10.60
2009,04,24,13,05,10.40
2009,04,24,13,06,10.40
2009,04,24,13,07,10.30
2009,04,24,13,08,10.50
2009,04,24,13,09,10.60
2009,04,24,13,10,10.60
2009,04,24,13,11,10.60
2009,04,24,13,12,10.60
2009,04,24,13,13,10.50
2009,04,24,13,14,10.40
2009,04,24,13,15,10.40
2009,04,24,13,16,10.30
2009,04,24,13,17,10.20
2009,04,24,13,18,10.20
2009,04,24,13,19,10.10
2009,04,24,13,20,10.10
2009,04,24,13,21,10.20
2009,04,24,13,22,10.10
2009,04,24,13,23,10.10
2009,04,24,13,24,10.10
2009,04,24,13,25,10.10
2009,04,24,13,26,10.10
2009,04,24,13,27,10.10
2009,04,24,13,28,10.10
2009,04,24,13,29,10.10
2009,04,24,13,30,10.10
2009,04,24,13,31,10.20
2009,04,24,13,32,10.40
2009,04,24,13,33,10.40
2009,04,24,13,34,10.40
2009,04,24,13,35,10.30
2009,04,24,13,36,10.30
2009,04,24,13,37,10.30
2009,04,24,13,38,10.30
2009,04,24,13,39,10.30
2009,04,24,13,40,10.40
2009,04,24,13,41,10.40
2009,04,24,13,42,10.40
2009,04,24,13,43,10.50
2009,04,24,13,44,10.60
2009,04,24,13,45,10.60
2009,04,24,13,46,10.60
2009,04,24,13,47,10.70
2009,04,24,13,48,10.70
2009,04,24,13,49,10.60
2009,04,24,13,50,10.60
2009,04,24,13,51,10.70
2009,04,24,13,52,10.70
2009,04,24,13,53,10.60
2009,04,24,13,54,10.60
2009,04,24,13,55,10.40
2009,04,24,13,56,10.30
2009,04,24,13,57,10.20
2009,04,24,13,58,10.20
2009,04,24,13,59,10.20
2009,04,24,14,00,10.20
2009,04,24,14,01,10.20
2009,04,24,14,02,10.20
2009,04,24,14,03,10.20
2009,04,24,14,04,10.40
2009,04,24,14,05,10.60
2009,04,24,14,06,10.60
2009,04,24,14,07,10.60
2009,04,24,14,08,10.60
2009,04,24,14,09,10.70
2009,04,24,14,10,10.80
2009,04,24,14,11,10.90
2009,04,24,14,12,11.00
2009,04,24,14,13,11.10
2009,04,24,14,14,11.20
2009,04,24,14,15,11.20
2009,04,24,14,16,11.20
2009,04,24,14,17,11.30
2009,04,24,14,18,11.40
2009,04,24,14,19,11.40
2009,04,24,14,20,11.50
2009,04,24,14,21,11.60
2009,04,24,14,22,11.60
2009,04,24,14,23,11.50
2009,04,24,14,24,11.40
2009,04,24,14,25,11.30
2009,04,24,14,26,11.30
2009,04,24,14,27,11.30
2009,04,24,14,28,11.20
2009,04,24,14,29,11.20
2009,04,24,14,30,11.20
2009,04,24,14,31,11.30
2009,04,24,14,32,11.20
2009,04,24,14,33,11.20
2009,04,24,14,34,11.20
2009,04,24,14,35,11.20
2009,04,24,14,36,11.40
2009,04,24,14,37,11.40
2009,04,24,14,38,11.50
2009,04,24,14,39,11.60
2009,04,24,14,40,11.60
2009,04,24,14,41,11.60
2009,04,24,14,42,11.60
2009,04,24,14,43,11.70
2009,04,24,14,44,11.80
2009,04,24,14,45,11.90
2009,04,24,14,46,12.00
2009,04,24,14,47,12.20
2009,04,24,14,48,12.20
2009,04,24,14,49,12.20
2009,04,24,14,50,12.20
2009,04,24,14,51,12.30
2009,04,24,14,52,12.20
2009,04,24,14,53,12.10
2009,04,24,14,54,11.90
2009,04,24,14,55,11.70
2009,04,24,14,56,11.70
2009,04,24,14,57,11.70
2009,04,24,14,58,11.80
2009,04,24,14,59,11.80
2009,04,24,15,00,11.80
2009,04,24,15,01,11.90
2009,04,24,15,02,12.00
2009,04,24,15,03,12.10
2009,04,24,15,04,12.10
2009,04,24,15,05,12.00
2009,04,24,15,06,11.80
2009,04,24,15,07,11.80
2009,04,24,15,08,11.80
2009,04,24,15,09,11.90
2009,04,24,15,10,12.00
2009,04,24,15,11,12.00
2009,04,24,15,12,11.90
2009,04,24,15,13,11.90
2009,04,24,15,14,11.90
2009,04,24,15,15,11.90
2009,04,24,15,16,12.00
2009,04,24,15,17,12.10
2009,04,24,15,18,12.20
2009,04,24,15,19,12.20
2009,04,24,15,20,12.30
2009,04,24,15,21,12.30
2009,04,24,15,22,12.30
2009,04,24,15,23,12.40
2009,04,24,15,24,12.50
2009,04,24,15,25,12.50
2009,04,24,15,26,12.50
2009,04,24,15,27,12.50
2009,04,24,15,28,12.60
2009,04,24,15,29,12.70
2009,04,24,15,30,12.70
2009,04,24,15,31,12.70
2009,04,24,15,32,12.80
2009,04,24,15,33,12.80
2009,04,24,15,34,12.80
2009,04,24,15,35,12.60
2009,04,24,15,36,12.60
2009,04,24,15,37,12.50
2009,04,24,15,38,12.30
2009,04,24,15,39,12.10
2009,04,24,15,40,12.00
2009,04,24,15,41,11.90
2009,04,24,15,42,11.90
2009,04,24,15,43,12.00
2009,04,24,15,44,12.20
2009,04,24,15,45,12.10
2009,04,24,15,46,12.10
2009,04,24,15,47,12.10
2009,04,24,15,48,12.00
2009,04,24,15,49,11.90
2009,04,24,15,50,11.80
2009,04,24,15,51,11.90
2009,04,24,15,52,11.90
2009,04,24,15,53,11.90
2009,04,24,15,54,11.90
2009,04,24,15,55,11.90
2009,04,24,15,56,11.90
2009,04,24,15,57,11.90
2009,04,24,15,58,11.90
2009,04,24,15,59,11.90
2009,04,24,16,00,11.90
2009,04,24,16,01,11.90
2009,04,24,16,02,11.80
2009,04,24,16,03,11.80
2009,04,24,16,04,11.80
2009,04,24,16,05,12.00
2009,04,24,16,06,12.10
2009,04,24,16,07,12.20
2009,04,24,16,08,12.00
2009,04,24,16,09,11.80
2009,04,24,16,10,11.80
2009,04,24,16,11,11.80
2009,04,24,16,12,12.00
2009,04,24,16,13,12.20
2009,04,24,16,14,12.30
2009,04,24,16,15,12.50
2009,04,24,16,16,12.80
2009,04,24,16,17,13.00
2009,04,24,16,18,13.10
2009,04,24,16,19,13.20
2009,04,24,16,20,13.30
2009,04,24,16,21,13.50
2009,04,24,16,22,13.60
2009,04,24,16,23,13.80
2009,04,24,16,24,13.90
2009,04,24,16,25,14.00
2009,04,24,16,26,14.10
2009,04,24,16,27,14.20
2009,04,24,16,28,14.20
2009,04,24,16,29,14.10
2009,04,24,16,30,14.20
2009,04,24,16,31,14.30
2009,04,24,16,32,14.50
2009,04,24,16,33,14.60
2009,04,24,16,34,14.90
2009,04,24,16,35,15.10
2009,04,24,16,36,15.40
2009,04,24,16,37,15.70
2009,04,24,16,38,15.90
2009,04,24,16,39,16.00
2009,04,24,16,40,16.20
2009,04,24,16,41,16.30
2009,04,24,16,42,16.40
2009,04,24,16,43,16.40
2009,04,24,16,44,16.60
2009,04,24,16,45,16.70
2009,04,24,16,46,16.80
2009,04,24,16,47,16.90
2009,04,24,16,48,17.00
2009,04,24,16,49,17.00
2009,04,24,16,50,17.00
2009,04,24,16,51,17.10
2009,04,24,16,52,17.00
2009,04,24,16,53,16.90
2009,04,24,16,54,16.80
2009,04,24,16,55,16.70
2009,04,24,16,56,16.60
2009,04,24,16,57,16.50
2009,04,24,16,58,16.40
2009,04,24,16,59,16.40
2009,04,24,17,00,16.40
2009,04,24,17,01,16.30
2009,04,24,17,02,16.30
2009,04,24,17,03,16.30
2009,04,24,17,04,16.20
2009,04,24,17,05,16.30
2009,04,24,17,06,16.30
2009,04,24,17,07,16.30
2009,04,24,17,08,16.30
2009,04,24,17,09,16.30
2009,04,24,17,10,16.30
2009,04,24,17,11,16.20
2009,04,24,17,12,16.10
2009,04,24,17,13,16.10
2009,04,24,17,14,16.10
2009,04,24,17,15,16.10
2009,04,24,17,16,16.10
2009,04,24,17,17,16.10
2009,04,24,17,18,16.10
2009,04,24,17,19,16.10
2009,04,24,17,20,16.10
2009,04,24,17,21,16.00
2009,04,24,17,22,16.00
2009,04,24,17,23,15.90
2009,04,24,17,24,15.90
2009,04,24,17,25,15.90
2009,04,24,17,26,15.80
2009,04,24,17,27,15.80
2009,04,24,17,28,15.80
2009,04,24,17,29,15.80
2009,04,24,17,30,15.80
2009,04,24,17,31,15.80
2009,04,24,17,32,15.80
2009,04,24,17,33,15.80
2009,04,24,17,34,15.80
2009,04,24,17,35,15.90
2009,04,24,17,36,15.90
2009,04,24,17,37,16.10
2009,04,24,17,38,16.10
2009,04,24,17,39,16.00
2009,04,24,17,40,15.90
2009,04,24,17,41,15.90
2009,04,24,17,42,15.80
2009,04,24,17,43,15.80
2009,04,24,17,44,15.80